This is the latest recevied weather packets stored in our database for station/object DK4SDR-10. If no packets are shown the sender has not sent any weather packets the latest 10 day(s).
| Time | Temp. | Humidity | Pressure | Rain* | Wind** | Luminosity | Snow |
|---|---|---|---|---|---|---|---|
| 1778012312 | 17.22° C | 55% | 1008.2 hPa | - | - | - | - |
| 1778011412 | 17.78° C | 55% | 1008.2 hPa | - | - | - | - |
| 1778010512 | 17.78° C | 55% | 1008 hPa | - | - | - | - |
| 1778009612 | 17.78° C | 55% | 1008 hPa | - | - | - | - |
| 1778008712 | 17.78° C | 55% | 1007.8 hPa | - | - | - | - |
| 1778007812 | 18.33° C | 55% | 1007.9 hPa | - | - | - | - |
| 1778006912 | 18.33° C | 55% | 1007.9 hPa | - | - | - | - |
| 1778006012 | 18.89° C | 54% | 1007.6 hPa | - | - | - | - |
| 1778005112 | 18.89° C | 54% | 1007.5 hPa | - | - | - | - |
| 1778004212 | 18.89° C | 54% | 1007.4 hPa | - | - | - | - |
| 1778003312 | 19.44° C | 54% | 1007.6 hPa | - | - | - | - |
| 1778002412 | 19.44° C | 53% | 1007.6 hPa | - | - | - | - |
| 1778001512 | 19.44° C | 54% | 1007.8 hPa | - | - | - | - |
| 1778000612 | 20° C | 53% | 1007.9 hPa | - | - | - | - |
| 1777999712 | 20° C | 52% | 1007.7 hPa | - | - | - | - |
| 1777998812 | 20° C | 51% | 1007.7 hPa | - | - | - | - |
| 1777997912 | 20.56° C | 51% | 1007.8 hPa | - | - | - | - |
| 1777997012 | 20.56° C | 50% | 1007.9 hPa | - | - | - | - |
| 1777996112 | 21.11° C | 50% | 1008.2 hPa | - | - | - | - |
| 1777995212 | 21.11° C | 50% | 1008.5 hPa | - | - | - | - |
| 1777994312 | 21.67° C | 50% | 1008.5 hPa | - | - | - | - |
| 1777993412 | 22.22° C | 48% | 1008.6 hPa | - | - | - | - |
| 1777992512 | 23.33° C | 45% | 1008.4 hPa | - | - | - | - |
| 1777991612 | 23.89° C | 43% | 1008.1 hPa | - | - | - | - |
| 1777990712 | 25.56° C | 40% | 1008 hPa | - | - | - | - |
* Rain since midnight (hover to see other rain measurements)
** Current wind speed in m/s (hover to see current wind gust speed)